Location: *
(50.5492°N, 7.7469°E)
Time: 02:43:41
(UTC+00:00)

Envisat - Pass Details

Date: 21 October 2019
Orbit: 764 x 766 km, 98.1° (Epoch: 12 November)

Event Time Altitude Azimuth Distance (km) Brightness Sun altitude
Rises 16:53:38 0° 150° (SSE) 3,223 6.0 -5.1°
Reaches altitude 10° 16:55:57 10° 147° (SSE) 2,301 5.3 -5.5°
Maximum altitude 17:00:54 57° 70° (ENE) 907 3.1 -6.3°
Drops below altitude 10° 17:05:54 10° 353° (N) 2,316 5.5 -7.1°
Sets 17:08:14 0° 349° (N) 3,246 6.3 -7.4°
